Location: Red Shale Campground
(45.5700°N, 106.1600°W)
Time: 05:06:47
(UTC-06:00)

Daily predictions for brighter satellites

Satellite Brightness Start Highest point End
(mag) Time Altitude Azimuth Time Altitude Azimuth Time Altitude Azimuth
SJ 16-02 3.7 00:00:30 10° WNW 00:02:48 14° W 00:04:12 12° WSW
Cosmos 2237 Rocket 2.1 00:00:04 10° NNW 00:05:48 88° ENE 00:07:27 49° SSE
Terra 3.6 00:08:32 17° WSW 00:10:12 21° W 00:13:47 10° NW
Cosmos 2228 3.5 00:09:19 10° NNW 00:13:27 48° W 00:13:55 46° WSW
Cosmos 2082 4.0 00:12:54 45° SE 00:13:44 49° ESE 00:19:15 10° NE
Cosmos 1726 Rocket 4.5 00:10:09 10° NNW 00:14:14 38° W 00:14:59 35° WSW
Cosmos 1766 4.4 00:11:07 10° NNW 00:14:43 34° W 00:15:03 33° WSW
ISS -1.7 00:13:21 10° NW 00:16:15 28° N 00:18:39 13° ENE
Meteor 1-21 4.3 00:14:44 42° SSW 00:16:38 72° WNW 00:22:17 10° N
Cosmos 1378 3.9 00:17:25 43° ENE 00:17:25 43° ENE 00:20:32 10° NNE
Cosmos 1538 Rocket 3.9 00:15:59 54° SSW 00:17:13 89° ESE 00:22:30 10° NNE
Cosmos 2180 Rocket 4.5 00:15:20 42° SSW 00:17:39 86° W 00:23:59 10° N
Abrixas rocket 3.4 00:16:11 10° WNW 00:18:40 40° NW 00:18:40 40° NW
Cosmos 923 Rocket 4.3 00:23:39 46° ESE 00:24:08 47° ESE 00:29:10 10° NNE
Cosmos 1680 Rocket 4.2 00:25:20 37° ESE 00:25:37 37° ESE 00:30:23 10° NE
Cosmos 1758 3.3 00:21:38 10° NNW 00:25:42 73° W 00:25:42 73° W
Cosmos 2058 Rocket 3.9 00:22:02 10° NNW 00:26:17 41° W 00:26:53 38° WSW
Cosmos 2219 4.1 00:26:40 19° WSW 00:30:30 45° WNW 00:36:03 10° NNE
COSMOS 2455 2.7 00:30:39 49° SSW 00:32:20 76° ESE 00:38:23 10° NE
Cosmos 1400 Rocket 4.2 00:35:16 29° E 00:35:16 29° E 00:38:35 10° NNE
ADEOS Rocket 2.9 00:29:50 10° NNE 00:35:20 59° E 00:36:22 50° SE
CZ-4 R/B 4.2 00:30:30 10° N 00:35:29 63° WNW 00:36:48 45° SW
DELTA 2 DEB (DPAF) 4.0 00:35:55 72° SW 00:36:14 76° WSW 00:40:42 10° NNW
Cosmos 1733 3.6 00:36:01 10° NNW 00:39:29 54° WNW 00:39:29 54° WNW
ALOS 2 2.5 00:40:16 72° SW 00:40:29 74° WSW 00:44:53 10° NNW
CZ-4B R/B 3.4 00:35:24 10° NNE 00:40:29 73° ESE 00:41:18 60° SSE
ERBS 3.3 00:40:36 10° NW 00:43:10 45° NNW 00:43:10 45° NNW
CZ-2C R/B 4.4 00:48:20 10° N 00:52:59 28° WNW 00:56:31 15° WSW
Cosmos 1470 3.4 00:52:17 10° NNW 00:55:42 47° WNW 00:55:42 47° WNW
Cosmos 2219 Rocket 3.9 00:52:27 10° WNW 00:56:13 19° W 00:57:01 18° WSW
deb Chang Zheng 4 3.6 00:52:46 10° NNE 00:57:05 64° ESE 00:57:06 64° ESE
Cosmos 1812 Rocket 3.7 00:54:14 10° NNW 00:58:33 61° W 00:58:36 61° W
USA 229 DEB 4.1 00:57:26 38° SE 00:58:35 41° ESE 01:04:57 10° NE
USA 229 4.1 00:57:33 38° SE 00:58:42 41° ESE 01:05:03 10° NE
Cosmos 1626 Rocket 4.1 00:58:43 45° W 00:59:14 47° WNW 01:03:33 10° N
CZ-4C R/B 4.0 00:59:39 50° WSW 00:59:44 51° W 01:04:06 10° NNW
Cosmos 1602 Rocket 4.0 01:00:59 48° W 01:01:24 50° WNW 01:05:43 10° N
Cosmos 1953 Rocket 4.2 01:03:19 42° E 01:03:24 42° E 01:07:29 10° NNE
Cosmos 1953 3.5 01:04:31 10° NNW 01:07:49 31° W 01:07:49 31° W
Cosmos 1315 Rocket 4.1 01:08:27 30° E 01:08:27 30° E 01:11:39 10° NNE
Meteor 1-24 Rocket 4.4 01:07:11 38° SE 01:08:34 45° E 01:14:07 10° NNE
Meteor 2-5 Rocket 3.8 01:10:12 52° SSE 01:11:35 71° E 01:17:30 10° NNE
Cosmos-2242 3.6 01:08:24 10° N 01:12:33 46° ENE 01:13:00 44° E
Cosmos 1758 Rocket 3.6 01:13:07 66° ESE 01:13:20 67° E 01:17:50 10° NNE
Cosmos 2333 Rocket 4.1 01:11:47 10° WNW 01:14:57 15° W 01:15:37 15° WSW
Cosmos 972 Rocket 4.1 01:14:58 55° SSE 01:15:49 63° ESE 01:20:50 10° NNE
SL-16 R/B 2.3 01:16:09 10° NNW 01:21:43 58° WSW 01:22:35 52° SW
Meteor 1-16 Rocket 4.1 01:17:20 10° NNW 01:22:37 68° W 01:23:31 57° SSW
Cosmos 2263 Rocket 3.8 01:22:47 19° ESE 01:23:59 20° E 01:28:02 10° NE
H-2A R/B 3.1 01:24:33 33° W 01:24:33 33° W 01:28:15 10° NNW
Cosmos 1707 3.7 01:24:38 38° WNW 01:24:38 38° WNW 01:28:18 10° N
Cosmos 1346 Rocket 3.8 01:24:05 10° N 01:27:42 36° ENE 01:28:04 35° E
Cosmos 1818 3.8 01:26:14 40° WSW 01:28:05 66° NW 01:33:32 10° NNE
MOS 1 Rocket 4.1 01:24:22 10° NNE 01:29:40 49° E 01:30:56 41° SE
Mayak 0.3 01:27:03 10° N 01:30:37 27° WNW 01:31:30 25° W
SL-08 R/B 4.5 01:29:05 10° N 01:35:13 75° E 01:37:22 42° SSE
Cosmos 1726 3.5 01:32:55 10° N 01:36:14 31° ENE 01:36:35 30° E
Cosmos 1238 Rocket 3.2 01:38:01 61° WSW 01:38:27 65° W 01:42:30 10° N
Cosmos 2297 Rocket 3.5 01:38:31 20° WSW 01:41:39 34° NW 01:46:46 10° NNE
Cosmos 1371 Rocket 4.0 01:37:24 10° NNW 01:42:39 67° WSW 01:43:27 57° SSW
Cosmos 1553 Rocket 4.0 01:41:05 45° S 01:43:05 77° E 01:49:16 10° N
Cosmos 2227 Rocket 3.7 01:41:33 16° WSW 01:45:03 29° NW 01:49:59 10° N
Cosmos 2237 Rocket 4.1 01:46:06 10° WNW 01:49:02 14° W 01:49:16 14° W
PSLV R/B 3.7 01:44:46 10° NNE 01:49:06 64° E 01:49:36 59° SE
Cosmos 1825 Rocket 4.3 01:52:22 38° W 01:52:53 40° WNW 01:57:04 10° N
ISS -1.9 01:49:51 10° WNW 01:51:14 23° NW 01:51:14 23° NW
Cosmos 1603 3.6 01:47:32 10° NNW 01:53:14 87° ENE 01:55:22 41° SSE
CZ-4C R/B 3.3 01:56:09 60° NNE 01:56:09 60° NNE 01:59:01 10° N
Cosmos 1452 Rocket 4.0 01:52:19 10° NNW 01:57:32 55° ENE 02:00:20 26° SE
Cosmos 2056 Rocket 3.5 01:54:37 10° NNW 01:59:39 59° WSW 02:00:23 53° SW
Cosmos 2221 4.1 01:55:59 10° NNE 01:59:52 30° ENE 02:01:58 20° ESE
Meteor 2-1 Rocket 4.2 01:55:11 10° N 02:00:58 88° E 02:03:02 43° S
Cosmos 2292 Rocket 3.6 01:57:41 10° NNW 02:01:36 68° W 02:02:11 61° SW
Cosmos 2227 4.1 02:03:34 48° SSW 02:05:12 86° ESE 02:10:54 10° NNE
Cosmos 1437 3.5 02:03:31 10° NNW 02:05:56 49° NNW 02:05:56 49° NNW
Cosmos 1624 Rocket 4.4 02:04:44 10° NNW 02:09:49 46° WSW 02:10:34 43° SW
Cosmos 1400 Rocket 4.4 02:10:53 24° W 02:11:27 25° WNW 02:14:55 10° NNW
Helios 1B 4.5 02:12:24 58° SSE 02:13:15 87° ENE 02:17:38 10° NNW
Cosmos 1674 2.7 02:18:40 60° W 02:18:42 60° W 02:22:25 10° N
Cosmos 1626 4.1 02:17:53 18° ESE 02:19:02 20° E 02:21:50 10° NE
SL-16 R/B 3.4 02:14:42 11° SE 02:20:24 47° ENE 02:26:18 10° N
Cosmos 2315 Rocket 4.3 02:23:40 30° SSE 02:26:46 61° E 02:32:54 10° NNE
Cosmos 1420 Rocket 4.0 02:21:46 10° NNW 02:27:02 84° ENE 02:29:33 31° SSE
Cosmos 1842 Rocket 3.4 02:23:04 10° NNW 02:27:27 75° W 02:28:16 56° SSW
CZ-4B R/B 1.3 02:27:51 83° W 02:27:51 83° W 02:31:16 10° NNW
Cosmos 1745 Rocket 4.2 02:23:03 10° NNW 02:29:14 56° W 02:31:39 36° SSW
CZ-2D R/B 3.4 02:25:03 10° NNE 02:29:42 31° E 02:32:32 19° SE
NOSS 3-1 (C) 3.3 02:27:45 39° SW 02:30:05 89° SE 02:36:37 10° NE
Genesis I 4.4 02:29:49 29° SE 02:30:12 29° ESE 02:33:44 10° NE
Cosmos 1340 2.7 02:27:39 10° N 02:31:27 75° E 02:32:07 57° SE
Aureole 1 Rocket 2.6 02:35:14 53° ESE 02:35:14 53° ESE 02:38:07 10° NNE
SeaSat 1 3.3 02:36:33 10° SE 02:41:17 49° NE 02:46:03 10° NNW
Cosmos 1315 Rocket 4.4 02:44:10 21° W 02:44:48 21° WNW 02:47:54 10° NNW
BREEZE M DEB (TANK) 4.3 02:45:12 27° SSW 02:48:08 35° SSE 02:51:49 10° E
USA 229 DEB 4.3 02:44:50 20° WSW 02:49:26 50° NW 02:56:13 10° NNE
USA 229 4.3 02:44:58 20° WSW 02:49:32 51° NW 02:56:19 10° NNE
NOSS 3-1 (A) 3.3 02:47:39 34° SSW 02:50:20 86° SE 02:56:54 10° NE
Resurs 1-4 Rocket 2.7 02:46:21 10° NNE 02:51:31 50° E 02:54:35 23° SSE
H-2A R/B 3.2 02:48:05 10° NNE 02:52:28 50° E 02:54:27 29° SSE
ARIANE 5 R/B 3.9 02:48:51 10° NNE 02:53:21 31° E 02:56:56 14° SSE
IRS-P3 4.3 02:51:23 10° NNE 02:56:43 70° ESE 02:59:33 28° S
NPP 3.7 02:51:18 10° NNE 02:56:44 77° ESE 02:59:32 29° S
Cosmos 1689 Rocket 3.1 02:58:08 34° WNW 02:58:08 34° WNW 03:00:39 10° NNW
USA 267 3.9 02:52:03 10° ENE 02:58:14 43° SE 03:01:37 25° S
Okean 3 Rocket 3.7 03:01:20 31° S 03:03:25 70° E 03:07:52 10° NNE
Landsat 5 4.4 03:03:32 28° WSW 03:03:47 29° W 03:07:21 10° NW
Cosmos 1943 3.6 02:59:43 10° NW 03:05:06 44° WSW 03:07:25 29° SSW
UNK 3.7 03:02:33 25° SSE 03:05:18 89° W 03:10:01 10° NNW
Cosmos 1300 3.1 03:02:07 10° NNW 03:05:47 45° W 03:06:27 40° SW
Cosmos 1709 Rocket 4.2 03:00:01 10° NNW 03:06:16 58° W 03:09:45 26° SSW
Cosmos 2074 Rocket 4.3 03:00:24 10° N 03:06:36 64° E 03:12:45 10° SSE
Cosmos 2263 Rocket 2.3 03:04:28 30° SW 03:07:21 66° WNW 03:13:03 10° NNE
SL-08 R/B 3.3 03:05:03 23° S 03:08:10 84° WSW 03:13:07 10° NNW
DELTA 2 R/B (1) 3.9 03:05:38 25° WSW 03:08:17 41° S 03:13:30 10° ESE
Cosmos 2184 Rocket 4.3 03:04:36 10° N 03:10:59 67° E 03:17:20 10° SSE
Cosmos 1726 3.9 03:08:44 10° NW 03:11:08 18° W 03:11:08 18° W
ADEOS II 4.3 03:09:09 10° NE 03:12:50 19° E 03:16:30 10° SE
Cosmos 1607 4.0 03:08:51 10° NW 03:15:20 88° NE 03:21:39 10° SE
GEOS 3 Rocket 4.1 03:10:44 10° NNE 03:15:58 55° NW 03:19:20 21° WSW
Cosmos 1455 3.1 03:12:38 10° N 03:16:18 46° ENE 03:19:31 13° SSE
Cosmos 2285 Rocket 4.1 03:13:13 26° SSW 03:16:59 73° WNW 03:23:22 10° NNE
Cosmos 1076 Rocket 3.7 03:24:24 30° SSW 03:26:23 59° W 03:30:41 10° N
USA 234 4.1 03:26:55 10° E 03:33:13 53° NNE 03:39:33 10° NW
Cosmos 1331 Rocket 4.0 03:28:31 10° NNW 03:33:43 83° ENE 03:38:52 10° SSE
Cosmos 1269 Rocket 4.0 03:30:29 24° SSW 03:33:43 75° WNW 03:39:03 10° NNE
Cosmos 2327 Rocket 4.5 03:28:11 10° N 03:34:18 85° E 03:40:25 10° S
Cosmos 2221 3.7 03:33:40 10° NNW 03:37:21 26° W 03:38:48 22° WSW
Cosmos 2151 3.9 03:35:03 11° SSE 03:38:58 45° E 03:43:05 10° NNE
MOZ.5/SAFIR/RUBIN 5/SL-8 3.8 03:36:21 16° S 03:40:10 66° W 03:44:56 10° NNW
NOSS 2-3 (D) 3.9 03:41:31 22° SSW 03:44:31 78° SE 03:49:57 10° NE
Cosmos 2251 Rocket 4.5 03:41:24 10° S 03:46:24 44° ESE 03:51:30 10° NNE
ADEOS 4.2 03:41:48 10° NNE 03:46:55 52° E 03:52:00 10° S
SAR-Lupe-2 3.4 03:48:13 11° S 03:51:35 80° WSW 03:55:11 10° NNW
Meteor 1-27 4.2 03:46:39 10° NNW 03:52:19 71° W 03:58:01 10° S
Cosmos 1626 3.3 03:52:29 20° WSW 03:54:11 28° WNW 03:57:27 10° NNW
Geosat 4.0 03:49:15 10° NNE 03:54:19 88° WNW 03:58:17 17° SSW
SL-24 R/B - RUBIN 2 4.3 03:56:34 17° WSW 04:00:29 54° NW 04:05:09 10° NNE
Cosmos 1328 Rocket 3.5 03:56:44 10° NNW 04:01:04 72° W 04:05:20 10° S
SL-16 R/B 3.3 03:59:47 15° SSW 04:04:10 32° W 04:09:41 10° NNW
Cosmos 1500 Rocket 4.1 03:59:58 10° S 04:04:19 59° E 04:08:42 10° NNE
Cosmos 405 Rocket 3.5 04:01:09 10° N 04:04:56 52° ENE 04:08:38 10° SSE
NOSS 2-3 (E) 4.0 04:01:40 17° SW 04:05:16 72° NW 04:10:50 10° NE
Cosmos 2228 Rocket 3.2 04:02:08 10° N 04:06:46 87° ENE 04:11:20 10° S
Genesis I 4.5 04:04:45 13° WSW 04:07:48 32° NW 04:11:30 10° NNE
Cosmos 1766 Rocket 4.1 04:04:53 17° SW 04:07:55 41° WNW 04:12:05 10° N
Spot 4 Rocket 4.3 04:04:05 10° N 04:09:07 56° WNW 04:13:34 13° SW
CZ-2D R/B 2.9 04:05:03 10° N 04:09:48 37° WNW 04:13:51 13° SW
Cosmos 921 Rocket 4.1 04:09:01 10° NW 04:12:35 26° W 04:15:35 13° SSW
SL-19 R/B 3.8 04:10:22 10° SSE 04:13:16 70° ENE 04:16:05 10° N
ATLAS 2AS CENTAUR R/B 3.7 04:06:14 10° S 04:13:42 52° ESE 04:21:30 10° NE
SeaSat 1 3.4 04:14:54 10° SSW 04:18:59 26° WSW 04:23:07 10° NW
Meteor 2-21 Rocket 4.5 04:16:06 10° NNW 04:22:10 65° W 04:28:09 10° S
Cosmos 1515 Rocket 3.6 04:18:44 10° NNW 04:23:02 61° W 04:27:18 10° S
GP-B 3.4 04:19:32 10° N 04:24:00 73° E 04:28:26 10° S
Meteor 2-16 Rocket 4.4 04:20:37 10° NNW 04:26:42 73° W 04:32:47 10° S
H-2A R/B 4.4 04:24:25 10° NNW 04:27:35 19° WNW 04:30:43 10° WSW
Meteor 2-10 Rocket 3.4 04:23:34 10° NNW 04:28:41 83° W 04:33:40 10° S
Cosmos 2341 Rocket 4.0 04:22:38 10° N 04:28:55 83° W 04:35:12 10° S
Cosmos 1441 Rocket 3.3 04:25:25 10° NNW 04:29:23 64° W 04:33:16 10° S
Resurs 1-4 Rocket 3.5 04:26:47 10° N 04:31:03 25° WNW 04:35:18 10° WSW
ARIANE 5 R/B 3.3 04:27:52 10° N 04:32:30 36° WNW 04:37:04 10° SW
Cosmos 1844 Rocket 2.9 04:27:19 10° SW 04:32:51 62° WNW 04:38:30 10° NNE
Okean O Rocket 4.3 04:31:18 10° NE 04:34:12 17° E 04:37:05 10° SE
SL-8 Rocket 4.2 04:31:31 10° N 04:37:43 78° E 04:43:55 10° SSE
UNKNOWN OBJECT B 3.3 04:34:55 10° N 04:38:27 40° WNW 04:41:58 10° SW
Cosmos 1151 Rocket 3.5 04:34:58 10° NNW 04:39:05 41° W 04:43:10 10° SSW
Cosmos 2278 Rocket 2.9 04:35:15 10° S 04:40:46 55° ESE 04:46:18 10° NE
Helios 1A Rocket 3.6 04:37:21 10° N 04:41:12 40° WNW 04:45:00 10° SW
USA 267 3.5 04:34:57 10° NE 04:41:27 68° NNW 04:47:55 10° WSW
Cosmos 1892 4.5 04:41:26 10° SSE 04:44:55 33° E 04:48:25 10° NNE
Cosmos 1844 3.9 04:40:01 10° SW 04:45:35 64° WNW 04:51:16 10° NNE
Cosmos 2181 Rocket 4.1 04:40:50 10° S 04:47:17 84° W 04:53:47 10° N
Cosmos 2058 4.1 04:44:13 10° SW 04:47:50 27° WNW 04:51:28 10° NNW
Cosmos 1833 Rocket 4.0 04:42:28 10° NNW 04:47:54 47° ENE 04:53:17 10° SE
Cosmos 2366 rocket 4.4 04:42:30 10° N 04:48:48 72° E 04:54:59 10° SSE
CZ-2D R/B 4.4 04:45:15 10° N 04:49:19 36° WNW 04:53:23 10° SW
